Cloud_Cover
0 0 0 0 5 8 8 0 2 0 0 0 0 0 13 5 8 0 0 0 0 0 0 0 0 1 5 66 21 38 10 8 2 4 5 10 99 96 96 99 76 83 80 94 78
0 0 0 0 0 0 0 1 1 0 0 0 0 0 0 37 36 0 0 0 0 0 0 0 11 10 31 100 6 84 97 26 58 0 2 5 5 43 57 64 67 48 42 10 5
0 0 0 0 0 0 0 0 0 0 0 0 0 2 0 43 10 0 0 0 0 0 0 0 0 11 52 13 4 5 100 100 100 24 1 4 5 5 1 1 2 5 1 0 0
0 0 0 0 0 0 0 0 0 0 0 4 0 0 0 51 0 0 0 0 0 0 0 0 0 20 0 0 0 5 5 5 2 5 3 0 5 5 50 5 1 0 0 0 0
0 0 0 0 0 0 0 0 0 0 0 1 15 16 2 0 0 0 0 0 0 0 0 0 0 0 0 0 3 5 5 12 5 5 5 2 0 3 5 53 36 4 1 0 0
0 0 0 0 0 0 0 0 0 1 0 3 34 11 18 0 0 0 0 0 0 0 0 0 0 0 0 0 0 5 5 8 16 81 57 0 0 0 4 5 34 22 5 0 0
0 0 2 0 0 0 0 0 0 25 14 24 80 32 0 0 0 0 0 0 0 0 0 0 0 0 0 0 0 5 5 5 39 52 98 5 0 0 5 5 94 63 7 0 0
0 0 0 0 0 0 0 0 0 5 5 46 100 20 0 0 0 0 0 0 0 0 0 0 0 0 0 0 0 0 2 6 5 13 2 0 3 5 5 5 79 80 8 0 0
0 0 0 0 0 0 0 0 15 21 13 16 25 23 0 0 0 0 0 0 0 0 0 0 0 0 0 0 0 0 0 1 0 0 0 2 1 5 5 5 9 85 0 0 0
0 0 0 0 0 0 0 0 14 52 40 29 5 16 0 0 0 0 0 0 0 0 0 0 0 0 0 0 0 0 0 0 0 0 0 0 0 0 5 22 5 87 8 0 0
0 3 1 5 1 0 0 0 0 0 0 0 0 0 0 0 0 0 0 0 0 0 0 0 0 0 0 0 0 0 0 0 0 0 0 0 0 3 5 32 5 31 100 2 0
0 1 0 0 5 0 0 0 0 0 0 0 0 0 0 0 0 0 0 0 0 0 0 0 0 0 0 0 0 0 0 0 0 0 0 0 1 0 4 52 23 99 99 76 0
0 0 0 0 0 0 0 0 0 0 0 0 0 0 0 0 0 0 0 0 0 0 0 0 0 0 0 0 0 0 0 0 0 0 2 0 0 4 7 5 4 5 84 54 1
0 0 0 0 0 0 0 0 0 0 0 0 0 0 0 0 0 0 0 0 0 0 0 0 0 0 0 0 0 0 0 0 0 2 2 3 0 0 2 5 63 5 5 4 0
0 0 0 0 1 1 0 0 0 0 0 0 0 0 0 0 0 0 0 0 0 0 0 0 0 0 0 0 0 0 0 0 0 0 0 1 0 0 0 5 3 5 5 0 0
0 0 1 10 9 5 0 0 0 0 0 0 0 0 0 0 0 0 0 0 0 0 0 0 0 0 0 0 0 0 0 0 0 0 3 0 0 0 0 5 84 5 2 3 0
0 0 3 0 0 0 0 0 0 0 0 0 0 0 0 0 0 0 0 0 0 0 0 0 0 0 0 0 0 0 0 0 0 0 15 0 0 0 0 5 65 3 4 5 1
0 0 0 0 0 0 0 0 0 0 0 0 0 0 0 0 0 0 0 0 0 0 0 0 0 0 0 0 0 0 0 0 0 0 0 0 74 0 0 43 80 2 16 48 5
0 2 0 0 0 0 0 0 0 0 0 0 0 0 0 0 0 0 0 0 0 0 0 0 0 0 0 0 0 0 0 0 0 0 0 0 0 5 1 3 85 37 60 5 5
36 66 1 0 0 0 0 0 0 0 0 0 0 0 0 0 0 0 0 0 0 0 0 0 0 0 0 0 0 0 0 0 0 0 0 0 0 0 0 0 0 25 3 4 6
0 0 0 0 0 0 0 1 0 0 0 0 0 0 0 0 0 0 0 0 0 0 0 0 0 0 0 0 0 0 0 0 0 0 0 0 0 0 0 0 0 0 5 31 5
26 2 0 0 3 5 5 5 5 5 0 0 0 0 0 0 0 0 0 0 0 0 0 0 0 0 0 0 0 0 0 0 0 0 0 0 0 0 0 0 0 0 0 25 89
53 77 0 1 10 7 11 89 69 68 8 4 5 2 0 0 0 0 0 0 0 0 0 0 0 0 0 0 0 0 0 0 0 0 0 0 3 0 0 0 0 0 5 3 2
8 34 1 22 5 46 84 3 5 82 99 92 51 15 5 4 2 0 0 0 0 0 0 0 0 0 0 0 0 0 0 1 3 0 1 0 50 0 0 0 0 0 0 3 3
5 9 89 13 17 100 100 5 7 38 72 100 100 95 12 5 5 5 0 0 0 0 0 0 0 0 0 0 0 0 0 3 83 89 0 38 4 0 0 0 0 0 0 0 1
72 100 98 100 94 86 13 21 5 5 18 6 100 100 100 37 5 5 3 1 1 0 0 0 0 0 0 0 0 0 5 5 9 99 80 46 1 0 0 0 0 0 0 0 0
100 100 100 100 83 75 64 17 53 59 3 68 96 100 100 94 98 6 5 2 2 6 4 0 0 0 0 0 0 0 30 72 51 5 90 93 5 0 0 0 0 1 0 0 0